TimeCST,TemperatureF,Dew PointF,Humidity,Sea Level PressureIn,VisibilityMPH,Wind Direction,Wind SpeedMPH,Gust SpeedMPH,PrecipitationIn,Events,Conditions,WindDirDegrees,DateUTC
12:56 AM,46.9,46.9,100,29.69,10.0,SSE,11.5,-,0.00,,Overcast,150,2012-02-29 06:56:00
1:33 AM,48.2,48.2,100,29.64,10.0,SSE,12.7,-,0.00,,Overcast,160,2012-02-29 07:33:00
1:56 AM,50.9,50.9,100,29.62,10.0,South,15.0,-,0.00,,Overcast,170,2012-02-29 07:56:00
2:21 AM,51.8,51.8,100,29.61,9.0,South,15.0,-,N/A,,Overcast,190,2012-02-29 08:21:00
2:56 AM,52.9,52.9,100,29.59,6.0,South,17.3,-,0.00,,Overcast,180,2012-02-29 08:56:00
3:47 AM,57.2,57.2,100,29.52,9.0,South,23.0,-,0.01,,Mostly Cloudy,190,2012-02-29 09:47:00
3:56 AM,57.9,57.9,100,29.52,10.0,South,24.2,-,0.01,,Mostly Cloudy,190,2012-02-29 09:56:00
4:29 AM,59.0,59.0,100,29.52,10.0,SSW,19.6,-,N/A,,Partly Cloudy,210,2012-02-29 10:29:00
4:56 AM,59.0,57.9,96,29.54,10.0,SSW,23.0,-,N/A,,Clear,210,2012-02-29 10:56:00
5:56 AM,56.8,54.0,90,29.57,10.0,SW,19.6,-,N/A,,Clear,220,2012-02-29 11:56:00
6:56 AM,54.9,52.9,93,29.59,10.0,SW,19.6,-,N/A,,Clear,230,2012-02-29 12:56:00
7:56 AM,54.9,41.0,60,29.61,10.0,WSW,21.9,-,N/A,,Clear,240,2012-02-29 13:56:00
8:56 AM,54.9,41.0,60,29.60,10.0,SW,25.3,-,N/A,,Clear,220,2012-02-29 14:56:00
10:56 AM,56.8,36.0,46,29.60,10.0,SW,27.6,-,N/A,,Clear,230,2012-02-29 16:56:00
11:56 AM,59.0,36.9,44,29.56,10.0,SW,27.6,-,N/A,,Clear,220,2012-02-29 17:56:00
12:56 PM,57.9,32.9,39,29.53,10.0,SW,29.9,42.6,N/A,,Clear,220,2012-02-29 18:56:00
1:56 PM,59.9,32.0,35,29.49,10.0,SW,39.1,51.8,N/A,,Clear,230,2012-02-29 19:56:00
2:56 PM,56.8,32.0,39,29.50,10.0,West,27.6,-,N/A,,Clear,260,2012-02-29 20:56:00
3:56 PM,52.9,29.1,40,29.53,10.0,West,29.9,48.3,N/A,,Partly Cloudy,260,2012-02-29 21:56:00
4:56 PM,46.9,29.1,50,29.59,10.0,West,26.5,39.1,N/A,,Overcast,260,2012-02-29 22:56:00
7:56 PM,41.0,27.1,58,29.68,10.0,West,21.9,-,N/A,,Overcast,270,2012-03-01 01:56:00
8:56 PM,38.8,26.1,60,29.71,10.0,West,24.2,-,N/A,,Partly Cloudy,270,2012-03-01 02:56:00
9:56 PM,36.9,26.1,65,29.73,10.0,West,20.7,-,N/A,,Mostly Cloudy,270,2012-03-01 03:56:00
10:56 PM,34.9,25.2,68,29.74,10.0,West,25.3,-,N/A,,Clear,280,2012-03-01 04:56:00
11:56 PM,34.9,25.2,68,29.77,10.0,West,16.1,-,N/A,,Mostly Cloudy,270,2012-03-01 05:56:00